����,���ϕ���(m/s),���ϕ���,�ő�u�ԕ���(m/s),�ő啗��������,�C��(��),���x(%),10���Ԉړ��ώZ�J��(mm),1���Ԉړ��ώZ�J��(mm),���J��(mm),�݌v�J��(mm),����(���ώZ)(MJ/m2),����(���ώZ)(min),���n�C��(hPa),�C�ʋC��(hPa)
2024-06-17T00:00:00+09:00,1.2,�k�k��,2.7,�k�k��,21.5,98.1,0,0,68.5,68.5,14.93,270,996.9,1010.4
2024-06-17T00:01:00+09:00,1.3,�k�k��,2.7,�k�k��,21.5,98.1,0,0,0,68.5,0,0,996.9,1010.4
2024-06-17T00:02:00+09:00,1.4,�k�k��,2.7,�k�k��,21.7,98.4,0,0,0,68.5,0,0,996.9,1010.4
2024-06-17T00:03:00+09:00,1.3,�k�k��,2.7,�k�k��,21.6,98.2,0,0,0,68.5,0,0,996.9,1010.4
2024-06-17T00:04:00+09:00,1.3,�k�k��,2.7,�k�k��,21.6,98.2,0,0,0,68.5,0,0,996.9,1010.4
2024-06-17T00:05:00+09:00,1.3,�k�k��,2.7,�k�k��,21.6,98.2,0,0,0,68.5,0,0,996.8,1010.3
2024-06-17T00:06:00+09:00,1.3,�k�k��,2.7,�k�k��,21.4,98,0,0,0,68.5,0,0,996.8,1010.3
2024-06-17T00:07:00+09:00,1.1,�k��,2.7,�k�k��,21.4,98,0,0,0,68.5,0,0,996.8,1010.3
2024-06-17T00:08:00+09:00,1,�k��,2.7,�k�k��,21.5,98,0,0,0,68.5,0,0,996.8,1010.3
2024-06-17T00:09:00+09:00,0.9,�k��,2.7,�k�k��,21.5,98,0,0,0,68.5,0,0,996.8,1010.3
2024-06-17T00:10:00+09:00,0.8,�k��,2.3,�k�k��,21.4,98.1,0,0,0,68.5,0,0,996.8,1010.3
2024-06-17T00:11:00+09:00,0.8,�k��,1.8,�k�k��,21.5,98.1,0,0,0,68.5,0,0,996.7,1010.2
2024-06-17T00:12:00+09:00,0.7,�k��,1.6,�k,21.5,98.2,0,0,0,68.5,0,0,996.7,1010.2
2024-06-17T00:13:00+09:00,0.7,�k��,1.4,�k��,21.6,98.2,0,0,0,68.5,0,0,996.7,1010.2
2024-06-17T00:14:00+09:00,0.7,�k��,1.5,�k��,21.5,98.1,0,0,0,68.5,0,0,996.7,1010.2
2024-06-17T00:15:00+09:00,0.7,�k��,1.5,�k��,21.5,98.1,0,0,0,68.5,0,0,996.7,1010.2
2024-06-17T00:16:00+09:00,0.8,�k��,1.5,�k��,21.6,98.1,0,0,0,68.5,0,0,996.7,1010.2
2024-06-17T00:17:00+09:00,0.8,�k�k��,1.5,�k��,21.6,98,0,0,0,68.5,0,0,996.7,1010.2
2024-06-17T00:18:00+09:00,0.8,�k�k��,1.5,�k��,21.4,97.8,0,0,0,68.5,0,0,996.7,1010.2
2024-06-17T00:19:00+09:00,0.8,�k�k��,1.5,�k��,21.6,98,0,0,0,68.5,0,0,996.7,1010.2
2024-06-17T00:20:00+09:00,0.8,�k�k��,1.5,�k��,21.6,98,0,0,0,68.5,0,0,996.8,1010.3
2024-06-17T00:21:00+09:00,0.8,�k�k��,1.6,�k,21.5,97.9,0,0,0,68.5,0,0,996.8,1010.3
2024-06-17T00:22:00+09:00,0.8,�k�k��,2,�k�k��,21.6,98.2,0,0,0,68.5,0,0,996.8,1010.3
2024-06-17T00:23:00+09:00,0.8,�k�k��,2,�k�k��,21.6,98,0,0,0,68.5,0,0,996.8,1010.3
2024-06-17T00:24:00+09:00,0.8,�k�k��,2,�k�k��,21.5,98,0,0,0,68.5,0,0,996.9,1010.4
2024-06-17T00:25:00+09:00,0.7,�k�k��,2,�k�k��,21.3,98,0,0,0,68.5,0,0,996.9,1010.4
2024-06-17T00:26:00+09:00,0.6,�k�k��,2,�k�k��,21.1,97.9,0,0,0,68.5,0,0,996.9,1010.4
2024-06-17T00:27:00+09:00,0.6,�k,2,�k�k��,21.1,98,0,0,0,68.5,0,0,996.9,1010.4
2024-06-17T00:28:00+09:00,0.6,�k,2,�k�k��,21,98.2,0,0,0,68.5,0,0,996.9,1010.4
2024-06-17T00:29:00+09:00,0.6,�k,2,�k�k��,21.1,98.2,0,0,0,68.5,0,0,996.8,1010.3
2024-06-17T00:30:00+09:00,0.6,�k��,2,�k�k��,20.9,98.1,0,0,0,68.5,0,0,996.8,1010.3
2024-06-17T00:31:00+09:00,0.6,��,2,�k�k��,21,98.2,0,0,0,68.5,0,0,996.9,1010.4
2024-06-17T00:32:00+09:00,0.6,��,1.6,��,20.9,98.1,0,0,0,68.5,0,0,996.9,1010.4
2024-06-17T00:33:00+09:00,0.6,���쐼,1.8,��,21.1,98.2,0,0,0,68.5,0,0,996.9,1010.4
2024-06-17T00:34:00+09:00,0.7,���쐼,1.8,��,21.1,98.2,0,0,0,68.5,0,0,996.9,1010.4
2024-06-17T00:35:00+09:00,0.7,��,1.8,��,21.2,98.2,0,0,0,68.5,0,0,996.9,1010.4
2024-06-17T00:36:00+09:00,0.7,��,1.8,��,20.9,97.9,0,0,0,68.5,0,0,997,1010.5
2024-06-17T00:37:00+09:00,0.8,��,1.8,��,20.8,97.9,0,0,0,68.5,0,0,996.9,1010.4
2024-06-17T00:38:00+09:00,0.8,��,1.8,��,21,98.1,0,0,0,68.5,0,0,997,1010.5
2024-06-17T00:39:00+09:00,0.8,��,1.8,��,21,98.2,0,0,0,68.5,0,0,997,1010.5
2024-06-17T00:40:00+09:00,0.8,��,1.8,��,21,98.1,0,0,0,68.5,0,0,996.9,1010.4
2024-06-17T00:41:00+09:00,0.9,��,2.4,���쐼,20.6,97.6,0,0,0,68.5,0,0,997,1010.5
2024-06-17T00:42:00+09:00,1,��,2.4,���쐼,20.6,97.5,0,0,0,68.5,0,0,996.9,1010.4
2024-06-17T00:43:00+09:00,1.1,��,2.6,��,20.5,97.7,0,0,0,68.5,0,0,997,1010.5
2024-06-17T00:44:00+09:00,1.1,��,2.6,��,20.4,97.7,0,0,0,68.5,0,0,997,1010.5
2024-06-17T00:45:00+09:00,1.2,��,2.6,��,20.4,97.8,0,0,0,68.5,0,0,996.9,1010.4
2024-06-17T00:46:00+09:00,1.3,��,2.6,��,20.4,97.9,0,0,0,68.5,0,0,997,1010.5
2024-06-17T00:47:00+09:00,1.5,��,2.6,��,20.5,98,0,0,0,68.5,0,0,997,1010.5
2024-06-17T00:48:00+09:00,1.6,��,2.6,��,20.4,97.9,0,0,0,68.5,0,0,997,1010.5
2024-06-17T00:49:00+09:00,1.7,��,2.6,��,20.5,98,0,0,0,68.5,0,0,997,1010.5
2024-06-17T00:50:00+09:00,1.7,��,2.6,��,20.7,98.1,0,0,0,68.5,0,0,997.1,1010.6
2024-06-17T00:51:00+09:00,1.6,��,2.6,��,20.7,98,0,0,0,68.5,0,0,997,1010.5
2024-06-17T00:52:00+09:00,1.6,��,2.6,��,20.5,97.8,0,0,0,68.5,0,0,997,1010.5
2024-06-17T00:53:00+09:00,1.6,��,2.6,��,20.5,97.8,0,0,0,68.5,0,0,997,1010.5
2024-06-17T00:54:00+09:00,1.5,��,2.6,��,20.6,97.9,0,0,0,68.5,0,0,997,1010.5
2024-06-17T00:55:00+09:00,1.5,��,2.6,��,20.6,97.9,0,0,0,68.5,0,0,997,1010.5
2024-06-17T00:56:00+09:00,1.5,���k��,2.6,��,20.5,98,0,0,0,68.5,0,0,997,1010.5
2024-06-17T00:57:00+09:00,1.4,���k��,2.3,��,20.5,97.9,0,0,0,68.5,0,0,997,1010.5
2024-06-17T00:58:00+09:00,1.3,���k��,2,��,20.7,98.1,0,0,0,68.5,0,0,997,1010.5
2024-06-17T00:59:00+09:00,1.3,���k��,2,��,20.7,98.2,0,0,0,68.5,0,0,997,1010.5
2024-06-17T01:00:00+09:00,1.3,���k��,2,��,20.7,98.1,0,0,0,68.5,0,0,997,1010.5
2024-06-17T01:01:00+09:00,1.3,���k��,1.9,��,20.7,98,0,0,0,68.5,0,0,997,1010.5
2024-06-17T01:02:00+09:00,1.2,���k��,1.8,���k��,20.6,98,0,0,0,68.5,0,0,997,1010.5
2024-06-17T01:03:00+09:00,1.2,��,1.8,���k��,20.5,97.9,0,0,0,68.5,0,0,997,1010.5
2024-06-17T01:04:00+09:00,1.2,��,1.9,��,20.4,97.9,0,0,0,68.5,0,0,997.1,1010.6
2024-06-17T01:05:00+09:00,1.3,��,2,��,20.5,98,0,0,0,68.5,0,0,997.1,1010.6
2024-06-17T01:06:00+09:00,1.4,��,2.4,��,20.4,98,0,0,0,68.5,0,0,997.2,1010.7
2024-06-17T01:07:00+09:00,1.5,��,2.4,��,20.5,98.2,0,0,0,68.5,0,0,997.2,1010.7
2024-06-17T01:08:00+09:00,1.6,��,2.4,��,20.4,98.1,0,0,0,68.5,0,0,997.2,1010.7
2024-06-17T01:09:00+09:00,1.7,��,2.5,��,20.3,98.1,0,0,0,68.5,0,0,997.2,1010.7
2024-06-17T01:10:00+09:00,1.7,��,2.5,��,20.4,98.2,0,0,0,68.5,0,0,997.2,1010.7
2024-06-17T01:11:00+09:00,1.8,��,2.5,��,20.4,98.2,0,0,0,68.5,0,0,997.2,1010.7
2024-06-17T01:12:00+09:00,1.9,��,2.5,��,20.4,98.3,0,0,0,68.5,0,0,997.1,1010.6
2024-06-17T01:13:00+09:00,1.9,��,2.5,��,20.3,98.3,0,0,0,68.5,0,0,997.1,1010.6
2024-06-17T01:14:00+09:00,2,��,2.6,���k��,20.3,98.2,0,0,0,68.5,0,0,997.1,1010.6
2024-06-17T01:15:00+09:00,2,��,2.6,���k��,20.3,98.3,0,0,0,68.5,0,0,997.1,1010.6
2024-06-17T01:16:00+09:00,2,��,2.6,���k��,20.3,98.3,0,0,0,68.5,0,0,997.1,1010.6
2024-06-17T01:17:00+09:00,2,��,2.7,��,20.2,98.3,0,0,0,68.5,0,0,997.2,1010.7
2024-06-17T01:18:00+09:00,2.1,��,2.7,��,20.2,98.3,0,0,0,68.5,0,0,997.1,1010.6
2024-06-17T01:19:00+09:00,2.1,��,2.9,���k��,20.2,98.3,0,0,0,68.5,0,0,997.1,1010.6
2024-06-17T01:20:00+09:00,2.1,��,2.9,���k��,20.1,98.3,0,0,0,68.5,0,0,997.1,1010.6
2024-06-17T01:21:00+09:00,2.2,��,2.9,���k��,20.1,98.3,0,0,0,68.5,0,0,997.1,1010.6
2024-06-17T01:22:00+09:00,2.2,��,2.9,���k��,20.1,98.4,0,0,0,68.5,0,0,997.1,1010.6
2024-06-17T01:23:00+09:00,2.2,��,2.9,���k��,20.2,98.4,0,0,0,68.5,0,0,997.1,1010.6
2024-06-17T01:24:00+09:00,2.2,��,2.9,���k��,20,98.4,0,0,0,68.5,0,0,997.1,1010.6
2024-06-17T01:25:00+09:00,2.1,��,2.9,���k��,20.1,98.5,0,0,0,68.5,0,0,997.1,1010.6
2024-06-17T01:26:00+09:00,2.1,��,2.9,���k��,20,98.5,0,0,0,68.5,0,0,997.2,1010.7
2024-06-17T01:27:00+09:00,2.2,��,2.9,���k��,20,98.5,0,0,0,68.5,0,0,997.3,1010.8
2024-06-17T01:28:00+09:00,2.2,��,3.1,��,20,98.5,0,0,0,68.5,0,0,997.4,1010.9
2024-06-17T01:29:00+09:00,2.2,��,3.4,��,19.9,98.5,0,0,0,68.5,0,0,997.4,1011
2024-06-17T01:30:00+09:00,2.2,��,3.4,��,19.9,98.5,0,0,0,68.5,0,0,997.3,1010.9
2024-06-17T01:31:00+09:00,2.3,��,3.4,��,19.9,98.5,0,0,0,68.5,0,0,997.3,1010.9
2024-06-17T01:32:00+09:00,2.4,��,3.4,��,19.9,98.5,0,0,0,68.5,0,0,997.3,1010.9
2024-06-17T01:33:00+09:00,2.4,��,3.4,��,19.9,98.5,0,0,0,68.5,0,0,997.3,1010.9
2024-06-17T01:34:00+09:00,2.5,��,3.4,��,19.8,98.6,0,0,0,68.5,0,0,997.3,1010.9
2024-06-17T01:35:00+09:00,2.5,��,3.4,��,19.8,98.5,0,0,0,68.5,0,0,997.2,1010.8
2024-06-17T01:36:00+09:00,2.5,��,3.4,��,19.8,98.5,0,0,0,68.5,0,0,997.2,1010.8
2024-06-17T01:37:00+09:00,2.5,��,3.4,��,19.8,98.6,0,0,0,68.5,0,0,997.2,1010.8
2024-06-17T01:38:00+09:00,2.5,��,3.4,��,19.8,98.6,0,0,0,68.5,0,0,997.2,1010.8
2024-06-17T01:39:00+09:00,2.5,��,3.4,��,19.8,98.6,0,0,0,68.5,0,0,997.2,1010.8
2024-06-17T01:40:00+09:00,2.5,��,3.4,��,19.8,98.6,0,0,0,68.5,0,0,997.2,1010.8
2024-06-17T01:41:00+09:00,2.4,��,3.2,��,19.8,98.6,0,0,0,68.5,0,0,997.2,1010.8
2024-06-17T01:42:00+09:00,2.3,��,3.2,��,19.8,98.7,0,0,0,68.5,0,0,997.2,1010.8
2024-06-17T01:43:00+09:00,2.3,��,3.2,��,19.8,98.6,0,0,0,68.5,0,0,997.1,1010.7
2024-06-17T01:44:00+09:00,2.3,��,3,��,19.8,98.5,0,0,0,68.5,0,0,997.1,1010.7
2024-06-17T01:45:00+09:00,2.3,��,3,��,19.8,98.5,0,0,0,68.5,0,0,997.2,1010.8
2024-06-17T01:46:00+09:00,2.3,��,3,��,19.7,98.5,0,0,0,68.5,0,0,997.2,1010.8
2024-06-17T01:47:00+09:00,2.3,��,3,��,19.7,98.5,0,0,0,68.5,0,0,997.3,1010.9
2024-06-17T01:48:00+09:00,2.3,��,3,��,19.7,98.5,0,0,0,68.5,0,0,997.3,1010.9
2024-06-17T01:49:00+09:00,2.2,��,2.9,��,19.7,98.5,0,0,0,68.5,0,0,997.3,1010.9
2024-06-17T01:50:00+09:00,2.2,��,3.1,��,19.7,98.5,0,0,0,68.5,0,0,997.3,1010.9
2024-06-17T01:51:00+09:00,2.3,��,3.1,��,19.6,98.5,0,0,0,68.5,0,0,997.3,1010.9
2024-06-17T01:52:00+09:00,2.3,��,3.1,��,19.6,98.5,0,0,0,68.5,0,0,997.3,1010.9
2024-06-17T01:53:00+09:00,2.2,��,3.1,��,19.7,98.6,0,0,0,68.5,0,0,997.3,1010.9
2024-06-17T01:54:00+09:00,2.2,��,3.1,��,19.7,98.5,0,0,0,68.5,0,0,997.2,1010.8
2024-06-17T01:55:00+09:00,2.1,��,3.1,��,19.7,98.5,0,0,0,68.5,0,0,997.2,1010.8
2024-06-17T01:56:00+09:00,2.1,��,3.3,��,19.7,98.6,0,0,0,68.5,0,0,997.2,1010.8
2024-06-17T01:57:00+09:00,2.2,��,3.5,���k��,19.6,98.5,0,0,0,68.5,0,0,997.2,1010.8
2024-06-17T01:58:00+09:00,2.3,��,3.5,���k��,19.6,98.5,0,0,0,68.5,0,0,997.2,1010.8
2024-06-17T01:59:00+09:00,2.4,��,3.5,���k��,19.7,98.5,0,0,0,68.5,0,0,997.2,1010.8
2024-06-17T02:00:00+09:00,2.4,��,3.5,���k��,19.6,98.6,0,0,0,68.5,0,0,997.3,1010.9
2024-06-17T02:01:00+09:00,2.5,��,3.5,���k��,19.7,98.5,0,0,0,68.5,0,0,997.2,1010.8
2024-06-17T02:02:00+09:00,2.5,��,3.5,���k��,19.7,98.6,0,0,0,68.5,0,0,997.3,1010.9
2024-06-17T02:03:00+09:00,2.6,��,3.5,���k��,19.7,98.6,0,0,0,68.5,0,0,997.2,1010.8
2024-06-17T02:04:00+09:00,2.7,��,3.7,��,19.7,98.6,0,0,0,68.5,0,0,997.2,1010.8
2024-06-17T02:05:00+09:00,2.9,��,3.7,��,19.6,98.5,0,0,0,68.5,0,0,997.2,1010.8
2024-06-17T02:06:00+09:00,2.9,��,3.7,��,19.6,98.5,0,0,0,68.5,0,0,997.2,1010.8
2024-06-17T02:07:00+09:00,2.9,��,3.7,��,19.6,98.6,0,0,0,68.5,0,0,997.2,1010.8
2024-06-17T02:08:00+09:00,2.8,��,3.7,��,19.6,98.7,0,0,0,68.5,0,0,997.3,1010.9
2024-06-17T02:09:00+09:00,2.8,��,3.7,��,19.6,98.6,0,0,0,68.5,0,0,997.3,1010.9
2024-06-17T02:10:00+09:00,2.7,��,3.7,��,19.6,98.7,0,0,0,68.5,0,0,997.3,1010.9
2024-06-17T02:11:00+09:00,2.7,��,3.7,��,19.6,98.7,0,0,0,68.5,0,0,997.3,1010.9
2024-06-17T02:12:00+09:00,2.6,��,3.7,��,19.6,98.7,0,0,0,68.5,0,0,997.3,1010.9
2024-06-17T02:13:00+09:00,2.6,��,3.7,��,19.5,98.7,0,0,0,68.5,0,0,997.3,1010.9
2024-06-17T02:14:00+09:00,2.5,��,3.6,��,19.5,98.7,0,0,0,68.5,0,0,997.3,1010.9
2024-06-17T02:15:00+09:00,2.4,��,3.6,��,19.5,98.7,0,0,0,68.5,0,0,997.4,1011
2024-06-17T02:16:00+09:00,2.4,��,3.6,��,19.5,98.7,0,0,0,68.5,0,0,997.4,1011
2024-06-17T02:17:00+09:00,2.4,��,3.6,��,19.5,98.7,0,0,0,68.5,0,0,997.4,1011
2024-06-17T02:18:00+09:00,2.3,��,3.6,��,19.5,98.7,0,0,0,68.5,0,0,997.5,1011.1
2024-06-17T02:19:00+09:00,2.3,��,3.6,��,19.5,98.7,0,0,0,68.5,0,0,997.5,1011.1
2024-06-17T02:20:00+09:00,2.3,��,3.6,��,19.5,98.7,0,0,0,68.5,0,0,997.5,1011.1
2024-06-17T02:21:00+09:00,2.3,��,3.1,��,19.6,98.7,0,0,0,68.5,0,0,997.5,1011.1
2024-06-17T02:22:00+09:00,2.3,��,3.2,��,19.5,98.7,0,0,0,68.5,0,0,997.5,1011.1
2024-06-17T02:23:00+09:00,2.4,��,3.3,��,19.5,98.7,0,0,0,68.5,0,0,997.5,1011.1
2024-06-17T02:24:00+09:00,2.3,��,3.3,��,19.5,98.7,0,0,0,68.5,0,0,997.5,1011.1
2024-06-17T02:25:00+09:00,2.3,��,3.3,��,19.5,98.7,0,0,0,68.5,0,0,997.5,1011.1
2024-06-17T02:26:00+09:00,2.4,��,3.3,��,19.5,98.7,0,0,0,68.5,0,0,997.5,1011.1
2024-06-17T02:27:00+09:00,2.4,��,3.3,��,19.6,98.7,0,0,0,68.5,0,0,997.5,1011.1
2024-06-17T02:28:00+09:00,2.4,��,3.3,��,19.5,98.8,0,0,0,68.5,0,0,997.5,1011.1
2024-06-17T02:29:00+09:00,2.5,��,3.4,���k��,19.5,98.7,0,0,0,68.5,0,0,997.5,1011.1
2024-06-17T02:30:00+09:00,2.5,��,3.4,���k��,19.5,98.7,0,0,0,68.5,0,0,997.6,1011.2
2024-06-17T02:31:00+09:00,2.4,��,3.4,���k��,19.6,98.7,0,0,0,68.5,0,0,997.5,1011.1
2024-06-17T02:32:00+09:00,2.4,��,3.4,���k��,19.6,98.8,0,0,0,68.5,0,0,997.5,1011.1
2024-06-17T02:33:00+09:00,2.3,��,3.4,���k��,19.6,98.7,0,0,0,68.5,0,0,997.5,1011.1
2024-06-17T02:34:00+09:00,2.3,��,3.4,���k��,19.5,98.7,0,0,0,68.5,0,0,997.5,1011.1
2024-06-17T02:35:00+09:00,2.3,��,3.4,���k��,19.5,98.7,0,0,0,68.5,0,0,997.5,1011.1
2024-06-17T02:36:00+09:00,2.3,��,3.4,���k��,19.4,98.7,0,0,0,68.5,0,0,997.5,1011.1
2024-06-17T02:37:00+09:00,2.3,��,3.4,���k��,19.4,98.7,0,0,0,68.5,0,0,997.5,1011.1
2024-06-17T02:38:00+09:00,2.3,��,3.4,���k��,19.4,98.8,0,0,0,68.5,0,0,997.5,1011.1
2024-06-17T02:39:00+09:00,2.3,��,3,��,19.4,98.8,0,0,0,68.5,0,0,997.5,1011.1
2024-06-17T02:40:00+09:00,2.3,��,3,��,19.4,98.8,0,0,0,68.5,0,0,997.5,1011.1
2024-06-17T02:41:00+09:00,2.3,��,3,��,19.4,98.8,0,0,0,68.5,0,0,997.5,1011.1
2024-06-17T02:42:00+09:00,2.3,��,3,��,19.4,98.8,0,0,0,68.5,0,0,997.5,1011.1
2024-06-17T02:43:00+09:00,2.3,��,3,��,19.4,98.9,0,0,0,68.5,0,0,997.5,1011.1
2024-06-17T02:44:00+09:00,2.3,��,3,��,19.4,98.9,0,0,0,68.5,0,0,997.6,1011.2
2024-06-17T02:45:00+09:00,2.3,��,3,��,19.3,98.9,0,0,0,68.5,0,0,997.6,1011.2
2024-06-17T02:46:00+09:00,2.2,��,3,��,19.4,98.9,0,0,0,68.5,0,0,997.6,1011.2
2024-06-17T02:47:00+09:00,2.2,��,3,��,19.4,99,0,0,0,68.5,0,0,997.5,1011.1
2024-06-17T02:48:00+09:00,2.2,��,2.8,��,19.3,98.9,0,0,0,68.5,0,0,997.6,1011.2
2024-06-17T02:49:00+09:00,2.2,��,2.8,��,19.3,98.9,0,0,0,68.5,0,0,997.6,1011.2
2024-06-17T02:50:00+09:00,2.1,��,2.8,��,19.3,99,0,0,0,68.5,0,0,997.7,1011.3
2024-06-17T02:51:00+09:00,2.1,��,2.8,��,19.4,99,0,0,0,68.5,0,0,997.6,1011.2
2024-06-17T02:52:00+09:00,2.1,��,2.8,��,19.4,99,0,0,0,68.5,0,0,997.6,1011.2
2024-06-17T02:53:00+09:00,2,��,2.8,��,19.5,99,0,0,0,68.5,0,0,997.5,1011.1
2024-06-17T02:54:00+09:00,1.9,��,2.8,��,19.5,99.1,0,0,0,68.5,0,0,997.5,1011.1
2024-06-17T02:55:00+09:00,1.8,��,2.8,��,19.5,99,0,0,0,68.5,0,0,997.5,1011.1
2024-06-17T02:56:00+09:00,1.8,��,2.7,��,19.4,98.9,0,0,0,68.5,0,0,997.5,1011.1
2024-06-17T02:57:00+09:00,1.8,��,2.7,��,19.4,98.8,0,0,0,68.5,0,0,997.4,1011
2024-06-17T02:58:00+09:00,1.7,��,2.6,��,19.4,98.9,0,0,0,68.5,0,0,997.5,1011.1
2024-06-17T02:59:00+09:00,1.6,��,2.5,��,19.5,98.9,0,0,0,68.5,0,0,997.5,1011.1
2024-06-17T03:00:00+09:00,1.6,��,2.5,��,19.5,98.9,0,0,0,68.5,0,0,997.5,1011.1
2024-06-17T03:01:00+09:00,1.6,��,2.5,��,19.5,98.8,0,0,0,68.5,0,0,997.5,1011.1
2024-06-17T03:02:00+09:00,1.5,��,2,��,19.6,98.8,0,0,0,68.5,0,0,997.6,1011.2
2024-06-17T03:03:00+09:00,1.5,��,2,��,19.5,98.8,0,0,0,68.5,0,0,997.6,1011.2
2024-06-17T03:04:00+09:00,1.4,��,2,��,19.8,98.8,0,0,0,68.5,0,0,997.6,1011.2
2024-06-17T03:05:00+09:00,1.4,��,1.8,���k��,19.7,98.8,0,0,0,68.5,0,0,997.6,1011.2
2024-06-17T03:06:00+09:00,1.4,��,1.8,���k��,19.7,98.7,0,0,0,68.5,0,0,997.7,1011.3
2024-06-17T03:07:00+09:00,1.4,��,2.3,��,19.7,98.7,0,0,0,68.5,0,0,997.7,1011.3
2024-06-17T03:08:00+09:00,1.4,��,2.6,��,19.5,98.5,0,0,0,68.5,0,0,997.7,1011.3
2024-06-17T03:09:00+09:00,1.5,��,2.7,��,19.4,98.4,0,0,0,68.5,0,0,997.7,1011.3
2024-06-17T03:10:00+09:00,1.5,��,2.7,��,19.4,98.4,0,0,0,68.5,0,0,997.7,1011.3
2024-06-17T03:11:00+09:00,1.5,��,2.7,��,19.5,98.5,0,0,0,68.5,0,0,997.7,1011.3
2024-06-17T03:12:00+09:00,1.5,��,2.7,��,19.5,98.5,0,0,0,68.5,0,0,997.7,1011.3
2024-06-17T03:13:00+09:00,1.6,��,2.7,��,19.6,98.6,0,0,0,68.5,0,0,997.8,1011.4
2024-06-17T03:14:00+09:00,1.7,��,2.7,��,19.5,98.6,0,0,0,68.5,0,0,997.7,1011.3
2024-06-17T03:15:00+09:00,1.7,��,2.7,��,19.5,98.5,0,0,0,68.5,0,0,997.7,1011.3
2024-06-17T03:16:00+09:00,1.8,��,2.7,��,19.5,98.5,0,0,0,68.5,0,0,997.7,1011.3
2024-06-17T03:17:00+09:00,1.9,��,2.7,��,19.5,98.5,0,0,0,68.5,0,0,997.7,1011.3
2024-06-17T03:18:00+09:00,1.8,��,2.7,��,19.4,98.5,0,0,0,68.5,0,0,997.7,1011.3
2024-06-17T03:19:00+09:00,1.8,��,2.5,��,19.4,98.5,0,0,0,68.5,0,0,997.8,1011.4
2024-06-17T03:20:00+09:00,1.8,��,2.5,��,19.4,98.5,0,0,0,68.5,0,0,997.8,1011.4
2024-06-17T03:21:00+09:00,1.7,��,2.5,��,19.4,98.6,0,0,0,68.5,0,0,997.8,1011.4
2024-06-17T03:22:00+09:00,1.8,��,2.5,��,19.4,98.5,0,0,0,68.5,0,0,997.7,1011.3
2024-06-17T03:23:00+09:00,1.8,��,2.6,���쐼,19.3,98.5,0,0,0,68.5,0,0,997.7,1011.3
2024-06-17T03:24:00+09:00,1.8,��,2.6,���쐼,19.3,98.5,0,0,0,68.5,0,0,997.7,1011.3
2024-06-17T03:25:00+09:00,1.8,��,2.6,���쐼,19.4,98.6,0,0,0,68.5,0,0,997.8,1011.4
2024-06-17T03:26:00+09:00,1.7,��,2.6,���쐼,19.4,98.6,0,0,0,68.5,0,0,997.8,1011.4
2024-06-17T03:27:00+09:00,1.7,��,2.6,���쐼,19.4,98.6,0,0,0,68.5,0,0,997.8,1011.4
2024-06-17T03:28:00+09:00,1.8,��,2.6,���쐼,19.3,98.5,0,0,0,68.5,0,0,997.9,1011.5
2024-06-17T03:29:00+09:00,1.8,��,2.6,���쐼,19.3,98.5,0,0,0,68.5,0,0,997.9,1011.5
2024-06-17T03:30:00+09:00,1.8,��,2.6,���쐼,19.3,98.5,0,0,0,68.5,0,0,997.9,1011.5
2024-06-17T03:31:00+09:00,1.9,��,2.6,���쐼,19.3,98.5,0,0,0,68.5,0,0,997.8,1011.4
2024-06-17T03:32:00+09:00,1.8,��,2.6,���쐼,19.2,98.5,0,0,0,68.5,0,0,997.8,1011.4
2024-06-17T03:33:00+09:00,1.8,��,2.6,��,19.2,98.5,0,0,0,68.5,0,0,997.8,1011.4
2024-06-17T03:34:00+09:00,1.9,��,2.6,��,19.3,98.5,0,0,0,68.5,0,0,997.9,1011.5
2024-06-17T03:35:00+09:00,1.9,��,2.6,��,19.3,98.5,0,0,0,68.5,0,0,997.9,1011.5
2024-06-17T03:36:00+09:00,1.9,��,2.6,��,19.4,98.5,0,0,0,68.5,0,0,997.9,1011.5
2024-06-17T03:37:00+09:00,1.8,��,2.5,��,19.5,98.6,0,0,0,68.5,0,0,997.9,1011.5
2024-06-17T03:38:00+09:00,1.8,��,2.3,��,19.5,98.6,0,0,0,68.5,0,0,997.9,1011.5
2024-06-17T03:39:00+09:00,1.8,��,2.3,��,19.4,98.4,0,0,0,68.5,0,0,997.9,1011.5
2024-06-17T03:40:00+09:00,1.8,��,2.3,��,19.4,98.4,0,0,0,68.5,0,0,998,1011.6
2024-06-17T03:41:00+09:00,1.8,��,2.3,��,19.4,98.5,0,0,0,68.5,0,0,998,1011.6
2024-06-17T03:42:00+09:00,1.9,��,2.4,��,19.4,98.4,0,0,0,68.5,0,0,997.9,1011.5
2024-06-17T03:43:00+09:00,1.8,��,2.4,��,19.4,98.4,0,0,0,68.5,0,0,997.9,1011.5
2024-06-17T03:44:00+09:00,1.8,��,2.4,��,19.4,98.4,0,0,0,68.5,0,0,997.9,1011.5
2024-06-17T03:45:00+09:00,1.8,��,2.4,��,19.4,98.4,0,0,0,68.5,0,0,997.9,1011.5
2024-06-17T03:46:00+09:00,1.8,��,2.4,��,19.3,98.3,0,0,0,68.5,0,0,997.9,1011.5
2024-06-17T03:47:00+09:00,1.8,��,2.6,��,19.4,98.3,0,0,0,68.5,0,0,997.9,1011.5
2024-06-17T03:48:00+09:00,1.8,��,2.7,��,19.4,98.3,0,0,0,68.5,0,0,997.9,1011.5
2024-06-17T03:49:00+09:00,1.9,��,2.7,��,19.3,98.3,0,0,0,68.5,0,0,997.9,1011.5
2024-06-17T03:50:00+09:00,1.9,��,2.8,��,19.3,98.3,0,0,0,68.5,0,0,997.9,1011.5
2024-06-17T03:51:00+09:00,2,��,2.8,��,19.3,98.4,0,0,0,68.5,0,0,998,1011.6
2024-06-17T03:52:00+09:00,2,��,3,��,19.3,98.4,0,0,0,68.5,0,0,998,1011.6
2024-06-17T03:53:00+09:00,2,��,3,��,19.3,98.4,0,0,0,68.5,0,0,998,1011.6
2024-06-17T03:54:00+09:00,2,��,3,��,19.3,98.5,0,0,0,68.5,0,0,997.9,1011.5
2024-06-17T03:55:00+09:00,2,��,3,��,19.2,98.5,0,0,0,68.5,0,0,997.9,1011.5
2024-06-17T03:56:00+09:00,2,��,3,��,19.3,98.6,0,0,0,68.5,0,0,997.9,1011.5
2024-06-17T03:57:00+09:00,1.9,��,3,��,19.3,98.7,0,0,0,68.5,0,0,997.9,1011.5
2024-06-17T03:58:00+09:00,1.9,��,3,��,19.3,98.7,0,0,0,68.5,0,0,998,1011.6
2024-06-17T03:59:00+09:00,1.8,��,3,��,19.4,98.7,0,0,0,68.5,0,0,998,1011.6
2024-06-17T04:00:00+09:00,1.8,��,3,��,19.3,98.7,0,0,0,68.5,0,0,998.1,1011.7
2024-06-17T04:01:00+09:00,1.8,��,3,��,19.3,98.7,0,0,0,68.5,0,0,998.1,1011.7
2024-06-17T04:02:00+09:00,1.8,��,2.8,��,19.2,98.6,0,0,0,68.5,0,0,998.1,1011.7
2024-06-17T04:03:00+09:00,1.8,��,3.2,��,19.2,98.5,0,0,0,68.5,0,0,998.2,1011.8
2024-06-17T04:04:00+09:00,2,��,3.2,��,19.1,98.6,0,0,0,68.5,0,0,998.1,1011.7
2024-06-17T04:05:00+09:00,2,��,3.2,��,19.1,98.5,0,0,0,68.5,0,0,998.1,1011.7
2024-06-17T04:06:00+09:00,2,��,3.2,��,19.2,98.6,0,0,0,68.5,0,0,998.1,1011.7
2024-06-17T04:07:00+09:00,2.1,��,3.2,��,19.1,98.6,0,0,0,68.5,0,0,998.2,1011.8
2024-06-17T04:08:00+09:00,2.2,��,3.2,��,19.1,98.6,0,0,0,68.5,0,0,998.2,1011.8
2024-06-17T04:09:00+09:00,2.2,��,3.2,��,19.1,98.6,0,0,0,68.5,0,0,998.2,1011.8
2024-06-17T04:10:00+09:00,2.3,��,3.2,��,19.1,98.6,0,0,0,68.5,0,0,998.2,1011.8
2024-06-17T04:11:00+09:00,2.3,��,3.2,��,19.1,98.7,0,0,0,68.5,0,0,998.2,1011.8
2024-06-17T04:12:00+09:00,2.2,��,3.2,��,19.1,98.7,0,0,0,68.5,0,0,998.2,1011.8
2024-06-17T04:13:00+09:00,2.1,��,3,��,19.2,98.7,0,0,0,68.5,0,0,998.1,1011.7
2024-06-17T04:14:00+09:00,2,��,3,��,19.1,98.7,0,0,0,68.5,0,0,998.2,1011.8
2024-06-17T04:15:00+09:00,2,��,3.2,��,19.1,98.7,0,0,0,68.5,0,0,998.2,1011.8
2024-06-17T04:16:00+09:00,2.1,��,3.2,��,19,98.6,0,0,0,68.5,0,0,998.2,1011.8
2024-06-17T04:17:00+09:00,2,��,3.2,��,19,98.7,0,0,0,68.5,0,0,998.2,1011.8
2024-06-17T04:18:00+09:00,2,��,3.2,��,18.9,98.7,0,0,0,68.5,0,0,998.3,1011.9
2024-06-17T04:19:00+09:00,2,��,3.2,��,18.9,98.7,0,0,0,68.5,0,0,998.3,1011.9
2024-06-17T04:20:00+09:00,1.9,��,3.2,��,19,98.8,0,0,0,68.5,0,0,998.3,1011.9
2024-06-17T04:21:00+09:00,2,��,3.4,��,18.9,98.8,0,0,0,68.5,0,0,998.3,1011.9
2024-06-17T04:22:00+09:00,2.1,��,3.4,��,19,98.8,0,0,0,68.5,0,0,998.4,1012
2024-06-17T04:23:00+09:00,2.2,��,3.4,��,18.9,98.7,0,0,0,68.5,0,0,998.4,1012
2024-06-17T04:24:00+09:00,2.3,��,3.4,��,18.8,98.7,0,0,0,68.5,0,0,998.3,1011.9
2024-06-17T04:25:00+09:00,2.2,��,3.4,��,18.9,98.7,0,0,0,68.5,0,0,998.3,1011.9
2024-06-17T04:26:00+09:00,2.2,��,3.4,��,18.8,98.7,0,0,0,68.5,0,0,998.2,1011.8
2024-06-17T04:27:00+09:00,2.3,��,3.4,��,18.8,98.7,0,0,0,68.5,0,0,998.2,1011.8
2024-06-17T04:28:00+09:00,2.3,��,3.4,��,18.9,98.7,0,0,0,68.5,0,0,998.2,1011.8
2024-06-17T04:29:00+09:00,2.3,��,3.4,��,18.8,98.7,0,0,0,68.5,0,0,998.2,1011.8
2024-06-17T04:30:00+09:00,2.4,��,3.4,��,18.8,98.7,0,0,0,68.5,0,0,998.2,1011.8
2024-06-17T04:31:00+09:00,2.4,��,3.3,��,18.8,98.7,0,0,0,68.5,0,0,998.2,1011.8
2024-06-17T04:32:00+09:00,2.3,��,3.3,��,18.8,98.7,0,0,0,68.5,0,0,998.2,1011.8
2024-06-17T04:33:00+09:00,2.2,��,3.3,��,18.8,98.7,0,0,0,68.5,0,0,998.2,1011.8
2024-06-17T04:34:00+09:00,2.2,��,3.3,��,18.8,98.7,0,0,0,68.5,0,0,998.3,1011.9
2024-06-17T04:35:00+09:00,2.2,��,3.3,��,18.8,98.6,0,0,0,68.5,0,0,998.3,1011.9
2024-06-17T04:36:00+09:00,2.3,��,3.2,��,18.8,98.6,0,0,0,68.5,0,0,998.4,1012
2024-06-17T04:37:00+09:00,2.3,��,3.2,��,18.8,98.6,0,0,0,68.5,0,0,998.4,1012
2024-06-17T04:38:00+09:00,2.3,��,3.2,��,18.8,98.5,0,0,0,68.5,0,0,998.5,1012.1
2024-06-17T04:39:00+09:00,2.3,��,3.2,��,18.8,98.5,0,0,0,68.5,0,0,998.5,1012.1
2024-06-17T04:40:00+09:00,2.3,��,3.2,��,18.7,98.5,0,0,0,68.5,0,0,998.5,1012.1
2024-06-17T04:41:00+09:00,2.3,��,3.2,��,18.7,98.4,0,0,0,68.5,0,0,998.5,1012.1
2024-06-17T04:42:00+09:00,2.4,��,3.2,��,18.7,98.4,0,0,0,68.5,0,0,998.5,1012.1
2024-06-17T04:43:00+09:00,2.5,��,3.2,��,18.7,98.4,0,0,0,68.5,0,0,998.5,1012.1
2024-06-17T04:44:00+09:00,2.4,��,3.2,��,18.7,98.3,0,0,0,68.5,0,0,998.5,1012.1
2024-06-17T04:45:00+09:00,2.4,��,3.2,��,18.6,98.3,0,0,0,68.5,0,0,998.5,1012.1
2024-06-17T04:46:00+09:00,2.4,��,3.5,��,18.7,98.4,0,0,0,68.5,0,0,998.6,1012.2
2024-06-17T04:47:00+09:00,2.4,��,3.5,��,18.6,98.4,0,0,0,68.5,0,0,998.6,1012.2
2024-06-17T04:48:00+09:00,2.4,��,3.5,��,18.8,98.5,0,0,0,68.5,0,0,998.6,1012.2
2024-06-17T04:49:00+09:00,2.3,��,3.5,��,18.8,98.5,0,0,0,68.5,0,0,998.6,1012.2
2024-06-17T04:50:00+09:00,2.3,��,3.5,��,18.8,98.6,0,0,0,68.5,0,0,998.6,1012.2
2024-06-17T04:51:00+09:00,2.2,��,3.5,��,18.9,98.6,0,0,0,68.5,0,0,998.6,1012.2
2024-06-17T04:52:00+09:00,2.1,��,3.5,��,18.8,98.4,0,0,0,68.5,0,0,998.6,1012.2
2024-06-17T04:53:00+09:00,2.1,��,3.5,��,18.8,98.5,0,0,0,68.5,0,0,998.6,1012.2
2024-06-17T04:54:00+09:00,2.2,��,3.5,��,18.7,98.4,0,0,0,68.5,0,0,998.6,1012.2
2024-06-17T04:55:00+09:00,2.2,��,3.5,��,18.7,98.4,0,0,0,68.5,0,0,998.6,1012.2
2024-06-17T04:56:00+09:00,2.2,��,3.3,��,18.7,98.3,0,0,0,68.5,0,0,998.6,1012.2
2024-06-17T04:57:00+09:00,2.2,��,3,��,18.6,98.3,0,0,0,68.5,0,0,998.6,1012.2
2024-06-17T04:58:00+09:00,2.2,��,3,��,18.6,98.3,0,0,0,68.5,0,0,998.6,1012.2
2024-06-17T04:59:00+09:00,2.2,��,3,��,18.7,98.3,0,0,0,68.5,0,0,998.6,1012.2
2024-06-17T05:00:00+09:00,2.2,��,3,��,18.7,98.3,0,0,0,68.5,0,0,998.6,1012.2
2024-06-17T05:01:00+09:00,2.3,��,3.3,���쐼,18.6,98.2,0,0,0,68.5,0,0,998.7,1012.3
2024-06-17T05:02:00+09:00,,,,,,,,,,,,,,
2024-06-17T05:03:00+09:00,2.4,��,3.5,���쐼,18.5,98,0,0,0,68.5,0,0,998.6,1012.2